Location: Dobrzeń Wielki
(50.7693°N, 17.8414°E)
Time: 16:01:34
(UTC+01:00)

Envisat - Pass Details

Date: 26 October 2019
Orbit: 764 x 766 km, 98.1° (Epoch: 13 November)

Event Time Altitude Azimuth Distance (km) Brightness Sun altitude
Rises 19:07:27 0° 178° (S) 3,221 6.2 -15.1°
Reaches altitude 10° 19:09:48 10° 183° (S) 2,299 5.5 -15.5°
Maximum altitude 19:14:45 53° 260° (W) 941 3.8 -16.3°
Drops below altitude 10° 19:19:44 10° 338° (NNW) 2,315 5.8 -17.1°
Sets 19:22:07 0° 343° (NNW) 3,246 6.5 -17.5°
